Temperature
17 17 17 17 17 17 17 17 17 17 17 17 17 17 17 17 18 18 18 18 18 17 17 17 17 17 17 17 17 17 17 16 17 17 17 17 17 17 17 17 17 17 17
17 17 17 17 17 17 17 17 17 17 17 17 17 17 17 17 17 18 18 18 18 18 17 17 17 17 17 17 17 17 17 16 16 17 17 17 17 17 16 16 17 17 17
17 17 17 17 17 17 17 17 17 17 17 17 17 17 17 17 17 17 17 18 18 18 17 17 17 17 17 17 17 17 17 17 17 16 17 17 17 17 17 16 16 16 16
17 17 17 17 17 17 17 17 16 16 16 16 16 16 16 16 17 17 17 17 17 17 17 17 17 18 18 17 17 17 17 17 17 17 17 17 17 17 17 17 17 16 16
17 17 17 17 17 16 16 16 16 16 16 16 16 16 16 16 16 16 16 17 17 17 17 17 17 17 18 18 18 18 18 18 18 17 17 17 17 17 17 17 17 17 16
17 17 17 16 16 16 16 15 15 15 15 15 15 15 15 16 16 16 16 16 17 17 17 17 17 17 17 17 18 18 18 18 18 18 17 17 17 17 17 17 17 17 17
17 17 17 16 16 15 15 15 15 15 15 15 15 15 15 16 16 16 16 16 16 16 16 17 17 17 17 17 17 17 17 17 18 18 17 17 17 17 17 17 17 17 17
17 17 17 17 16 15 15 15 15 15 15 15 15 15 15 15 16 16 15 15 16 16 16 16 17 17 17 17 17 17 17 17 17 17 17 17 17 17 17 17 17 17 17
17 17 17 17 16 16 15 15 15 15 15 15 15 14 14 15 15 15 15 15 16 16 16 16 17 17 17 17 17 17 17 17 17 17 17 17 17 17 17 17 17 17 17
17 17 17 17 16 16 16 16 15 15 15 15 14 14 14 14 14 15 15 15 15 16 16 16 17 17 17 17 17 17 17 17 17 17 17 17 17 17 17 17 17 17 17
17 17 17 17 16 16 16 16 16 16 15 15 15 14 14 14 14 14 14 15 15 16 16 16 16 16 17 17 17 17 17 17 17 17 17 17 17 17 16 16 16 17 17
16 16 16 17 16 16 16 16 16 16 16 15 15 15 14 14 14 13 13 14 15 16 16 16 16 16 16 16 17 17 17 17 17 17 17 17 17 17 16 16 16 16 16
14 14 15 15 16 16 16 15 15 16 16 16 16 15 15 14 14 13 13 13 13 15 16 16 16 16 16 16 16 17 17 17 17 16 16 16 16 16 16 16 16 16 16
14 14 13 13 13 14 15 15 15 15 15 16 16 15 15 15 14 14 13 13 12 13 14 15 15 15 16 16 16 16 16 16 16 16 16 16 16 16 16 16 16 16 15
13 13 13 13 12 12 13 13 14 14 14 15 15 15 15 15 14 14 13 13 12 12 12 14 14 14 15 15 16 16 16 16 16 16 16 16 16 16 16 16 15 15 15
12 12 12 12 12 12 12 12 12 13 13 13 14 14 14 14 14 14 14 13 13 12 12 13 13 13 14 14 15 15 16 16 16 16 16 16 16 16 16 15 15 15 15
12 12 12 12 11 12 11 12 11 11 11 12 13 13 14 14 14 14 13 13 13 13 13 13 13 13 13 13 14 14 14 14 15 15 15 15 15 15 15 15 15 15 15
12 12 12 11 11 11 11 11 11 11 11 11 12 12 13 13 13 13 13 13 13 13 13 13 13 12 12 12 12 13 13 13 13 13 14 14 14 14 14 15 14 14 14
12 12 12 11 11 11 11 11 11 11 11 11 11 11 12 12 13 13 13 13 13 13 13 13 13 12 12 12 12 12 12 12 12 13 13 13 13 13 14 14 14 13 13
12 12 11 11 11 11 11 11 10 10 10 10 11 11 11 11 12 13 13 13 13 13 13 13 12 12 12 12 12 12 12 12 12 12 12 12 12 12 12 13 13 13 13
11 11 11 11 11 11 11 11 10 10 10 10 10 10 10 11 11 12 12 13 13 13 13 12 12 12 12 12 12 12 12 11 11 11 11 11 11 12 12 12 12 12 12
10 11 11 11 11 11 11 10 10 10 10 10 10 10 10 10 11 11 12 13 13 13 13 13 12 12 12 12 12 12 12 11 11 11 11 11 11 11 11 11 12 12 12
9 10 10 11 11 10 10 10 10 10 10 10 10 10 10 10 11 11 12 12 13 13 13 13 13 12 12 12 12 12 11 11 12 11 11 10 10 10 10 10 11 11 11
7 8 9 10 10 10 10 10 10 10 10 10 10 10 10 10 10 11 12 12 13 13 13 13 13 13 12 12 12 12 11 11 11 10 10 10 9 10 10 10 10 10 10
6 7 8 9 9 9 9 9 9 9 10 10 10 10 10 10 10 10 11 11 12 12 12 12 12 12 12 12 12 11 11 10 9 9 9 10 9 9 9 9 9 9 9
4 5 6 7 8 8 8 9 9 9 9 10 10 10 10 10 10 10 10 11 11 12 12 12 12 12 12 12 12 12 11 11 10 8 9 9 9 9 8 8 8 8 8
Wind_Speed
8 7 7 9 10 11 9 7 7 8 7 9 11 11 11 13 15 15 14 17 18 18 18 18 17 18 21 23 26 27 27 27 27 26 24 22 22 22 22 21 20 20 19
7 8 7 6 6 8 9 7 6 5 5 5 7 7 8 9 11 12 12 13 15 15 16 16 18 19 20 21 23 24 25 26 27 27 26 25 24 23 23 23 22 21 21
9 7 7 6 6 7 6 4 3 3 3 4 5 5 5 6 7 9 10 10 11 13 16 17 18 18 18 19 20 21 22 25 27 27 28 28 26 25 24 25 25 24 23
11 7 6 5 4 4 3 3 3 3 3 3 3 3 4 4 7 8 8 9 9 10 12 16 18 18 18 19 20 21 21 22 25 27 28 29 28 27 26 26 26 26 25
11 7 5 4 4 3 3 3 2 2 3 4 4 4 4 5 6 6 7 9 9 10 11 13 16 17 17 17 18 19 20 21 23 25 27 28 29 28 27 27 27 27 28
10 7 5 5 5 3 3 3 3 2 3 3 3 4 4 6 6 7 8 7 8 9 10 12 12 13 16 17 17 17 19 21 22 23 25 27 28 28 28 28 28 28 28
9 7 6 6 5 5 5 5 3 3 2 1 1 2 3 4 6 6 6 5 6 6 7 9 9 10 11 14 16 17 18 20 21 22 23 25 26 28 29 29 28 28 28
8 7 8 7 7 5 5 5 4 3 2 2 2 1 2 3 2 2 2 2 3 2 3 5 7 8 10 9 11 15 17 18 19 20 21 23 24 25 27 28 28 27 27
6 6 8 8 8 8 7 7 6 6 4 3 2 3 3 3 2 2 1 2 2 2 3 4 6 7 9 9 10 13 15 16 16 16 18 19 20 22 24 26 26 26 27
4 4 5 7 8 8 8 8 7 5 5 4 3 3 3 2 2 2 2 2 3 4 5 5 6 6 7 8 10 12 14 14 14 14 15 17 18 20 21 22 23 23 25
6 5 4 4 6 7 9 9 9 8 6 5 4 3 2 2 2 2 3 3 4 4 6 7 6 5 6 6 8 11 13 13 14 14 14 16 18 20 21 20 20 20 22
4 7 7 5 4 5 8 9 10 11 9 7 5 5 4 3 3 3 4 3 4 4 6 6 5 4 4 4 7 10 13 14 14 14 14 15 16 18 19 19 18 17 18
3 4 4 5 5 5 6 7 9 10 10 9 8 6 6 5 4 4 3 3 3 3 3 3 2 3 3 3 3 5 7 10 13 13 13 12 12 14 16 17 17 16 16
4 4 4 3 4 6 5 6 8 9 9 10 10 8 6 6 6 5 4 3 3 2 2 4 2 3 3 4 5 5 3 4 5 8 9 9 9 10 11 12 13 13 14
5 5 4 4 4 3 5 5 5 7 8 9 10 9 7 6 6 6 6 5 3 3 3 2 2 1 2 3 5 4 5 6 5 5 6 9 12 13 13 13 13 11 10
7 6 6 5 5 4 3 4 5 5 7 8 7 8 8 6 6 6 6 6 6 5 4 2 2 2 0 2 4 5 8 12 12 13 14 16 17 17 17 17 17 16 16
9 8 7 6 6 5 5 5 5 6 7 7 7 8 10 8 7 6 6 6 7 7 7 4 2 2 2 3 3 5 7 8 11 16 17 18 18 19 19 19 19 19 18
11 10 8 7 7 7 6 7 7 6 6 6 6 8 10 8 9 7 7 7 7 8 7 7 2 3 3 4 5 6 5 8 10 16 18 18 18 19 19 20 19 19 19
12 10 9 10 9 9 8 8 7 7 8 7 6 7 8 8 9 8 8 8 7 7 7 6 4 3 2 3 5 6 8 8 10 14 17 16 17 17 18 18 18 18 19
12 11 11 11 10 9 9 9 8 8 8 8 8 7 7 8 9 8 8 9 8 7 7 6 6 5 3 4 6 6 7 6 7 9 13 14 17 17 17 17 17 17 18
12 12 11 11 10 9 10 10 9 9 8 8 8 8 8 10 10 9 8 8 9 8 7 7 7 6 5 6 7 5 8 9 7 6 9 8 9 10 12 15 16 18 19
11 11 12 12 11 10 13 15 11 8 8 7 7 7 7 9 11 13 14 13 12 11 11 9 8 9 9 7 7 10 11 9 5 4 7 7 6 8 8 10 15 18 20
10 11 12 12 12 13 14 14 14 9 8 8 8 7 6 7 9 9 10 13 15 16 14 11 10 11 10 11 12 13 11 6 6 9 9 7 6 9 8 12 16 17 19
9 9 10 11 10 11 14 14 12 9 8 8 9 9 8 9 8 9 8 8 9 11 13 12 11 10 10 13 15 12 12 11 11 6 4 6 5 6 6 10 14 15 16
9 8 7 8 9 9 11 12 8 5 6 8 9 9 9 9 11 11 9 9 9 8 9 11 11 10 14 18 18 15 16 15 12 5 2 4 5 5 5 5 9 12 12
10 8 7 6 6 7 9 10 7 4 5 6 7 8 11 11 11 11 10 11 11 9 7 7 7 11 15 20 22 19 17 17 15 7 4 4 6 5 4 3 3 6 8
Wind_Direction
233 232 234 236 236 237 240 243 246 236 231 241 246 244 239 235 237 238 247 256 263 268 264 257 251 250 244 235 227 221 218 213 211 213 218 220 218 210 203 204 206 205 202
233 237 235 233 238 237 238 235 234 216 208 215 233 237 237 236 236 240 247 256 262 267 269 265 261 258 249 240 235 230 225 219 214 212 215 219 220 216 209 205 207 209 208
234 228 229 229 233 230 224 215 207 181 188 206 231 238 237 236 239 246 251 255 261 266 267 267 264 262 255 246 240 237 233 225 217 214 215 217 218 216 214 209 208 210 211
226 219 218 226 223 207 191 184 173 172 194 206 227 242 242 246 248 250 253 254 254 258 262 262 261 258 256 251 244 240 237 230 222 217 217 218 217 215 214 213 212 210 211
215 201 204 212 197 184 184 182 183 180 194 209 226 238 242 243 249 252 253 256 254 253 254 258 260 258 256 252 245 239 237 233 227 222 220 218 217 215 214 214 214 213 212
206 192 194 194 180 177 189 191 195 196 204 209 231 250 258 259 261 258 259 263 263 261 260 259 258 256 252 248 245 240 238 235 229 225 222 220 219 216 214 214 213 214 214
204 191 191 188 182 190 198 188 178 192 207 171 175 287 290 271 263 259 258 261 269 276 274 268 260 251 248 244 242 241 241 241 236 228 222 220 220 219 217 215 213 211 212
212 201 196 193 188 188 188 186 176 177 197 175 172 196 295 319 296 261 256 257 271 293 299 294 278 258 248 244 242 240 241 241 240 235 227 222 220 220 218 216 214 211 210
251 222 207 197 190 186 191 193 185 178 189 202 200 178 192 236 294 311 281 275 282 296 301 299 295 276 256 245 245 240 238 237 237 236 231 222 219 219 218 216 215 212 211
302 268 238 214 199 192 191 192 191 184 168 188 211 220 215 192 201 305 316 311 302 292 293 290 292 286 266 249 243 240 238 236 236 238 236 226 218 216 217 216 216 214 213
357 351 316 257 224 207 200 189 185 190 184 179 185 186 203 213 205 213 278 311 313 287 278 280 282 280 275 259 255 252 249 245 240 239 240 234 223 214 211 213 217 218 219
352 3 357 338 285 244 218 203 192 190 192 187 187 184 179 181 190 196 236 280 298 290 286 281 277 287 294 284 270 266 259 254 249 245 241 237 227 216 210 210 215 221 224
315 328 345 343 329 294 255 225 204 195 192 191 194 196 197 202 185 180 212 260 284 294 303 304 312 328 337 346 334 314 283 266 253 245 237 231 219 211 208 209 213 216 221
268 276 284 294 310 318 300 247 224 210 197 196 198 197 200 212 201 191 192 207 271 279 282 292 323 352 16 20 19 21 5 327 262 237 225 209 188 175 174 181 190 198 208
255 260 268 274 275 286 304 297 249 229 212 206 203 202 205 214 208 208 202 199 220 266 287 285 301 347 39 37 26 39 51 66 81 108 133 136 133 130 130 131 134 138 149
245 253 259 260 261 250 236 270 284 260 234 225 213 208 212 217 214 210 206 205 210 225 253 255 264 290 321 84 60 64 79 83 86 96 103 108 111 112 113 115 116 117 117
243 238 238 242 251 250 232 220 235 274 259 243 227 221 225 218 216 216 210 205 208 213 243 259 254 267 226 156 106 87 85 86 88 92 97 100 103 105 106 106 105 104 103
245 236 227 228 238 243 234 226 225 230 251 259 251 236 237 229 224 223 218 215 211 209 223 252 253 248 228 170 132 106 87 87 89 89 92 94 96 98 99 99 99 99 100
242 236 224 224 231 236 237 234 230 228 231 238 242 245 246 233 231 227 222 221 215 207 211 229 246 244 226 154 132 108 97 91 86 86 84 86 91 94 96 97 100 102 103
238 234 227 226 229 231 234 236 231 233 234 235 228 226 238 238 235 233 227 223 211 204 206 222 237 238 220 156 146 135 117 97 90 87 86 89 94 94 97 101 104 106 107
244 235 229 229 230 228 232 229 226 227 229 236 231 222 224 234 238 239 232 222 206 204 205 216 227 223 204 173 161 139 129 114 92 94 98 89 94 92 93 98 103 107 107
252 238 230 227 225 226 230 225 218 218 218 225 235 235 234 241 245 244 240 226 207 203 205 209 219 219 204 172 153 147 141 136 123 127 105 90 91 90 85 95 104 107 109
262 246 237 227 222 225 227 230 226 220 221 222 226 233 248 251 249 255 251 234 218 208 200 202 214 216 196 171 158 159 159 144 130 147 125 105 96 89 83 90 103 111 115
270 255 242 229 221 224 221 226 228 223 228 233 229 226 233 253 260 258 254 235 219 212 210 213 221 216 194 174 164 154 141 117 106 106 110 114 113 99 90 86 97 110 121
270 259 248 228 218 225 220 223 220 207 230 244 241 231 227 243 258 253 242 224 211 210 210 214 215 202 172 156 147 140 139 134 133 125 96 108 124 109 95 86 83 98 122
268 261 250 230 221 231 231 228 216 198 232 250 251 239 229 235 253 250 232 216 206 197 184 182 180 164 158 153 152 153 150 146 142 139 160 123 144 132 109 99 98 96 103
Height
1526 1527 1528 1528 1529 1529 1530 1531 1532 1532 1532 1532 1532 1533 1534 1534 1535 1536 1537 1538 1539 1539 1540 1541 1542 1542 1544 1545 1546 1549 1551 1553 1555 1558 1560 1563 1565 1567 1569 1571 1574 1576 1578
1522 1523 1523 1524 1524 1524 1525 1526 1527 1527 1527 1527 1528 1529 1529 1530 1530 1531 1532 1532 1533 1534 1535 1536 1537 1538 1539 1540 1542 1544 1546 1548 1550 1553 1555 1558 1561 1563 1566 1568 1570 1573 1575
1518 1519 1519 1519 1519 1519 1519 1520 1521 1521 1522 1522 1523 1524 1524 1525 1525 1525 1526 1527 1528 1528 1529 1530 1531 1532 1534 1535 1537 1538 1541 1543 1545 1548 1550 1553 1556 1558 1561 1564 1566 1569 1571
1514 1515 1515 1515 1515 1515 1515 1515 1515 1516 1516 1517 1518 1519 1519 1520 1520 1520 1521 1521 1522 1523 1524 1525 1525 1526 1528 1529 1531 1533 1535 1537 1540 1543 1545 1548 1550 1553 1556 1559 1562 1564 1567
1510 1511 1511 1511 1511 1511 1511 1511 1512 1512 1513 1513 1514 1514 1515 1515 1516 1516 1517 1517 1518 1518 1519 1520 1520 1521 1522 1523 1525 1527 1529 1531 1534 1537 1540 1542 1545 1547 1550 1553 1556 1559 1563
1507 1507 1507 1507 1508 1508 1508 1508 1509 1510 1510 1510 1510 1510 1511 1511 1512 1512 1512 1513 1513 1514 1514 1515 1515 1516 1517 1518 1519 1521 1523 1526 1529 1531 1534 1537 1539 1542 1544 1547 1550 1554 1558
1504 1504 1504 1504 1505 1505 1505 1506 1506 1506 1507 1507 1507 1507 1506 1506 1506 1506 1507 1508 1509 1509 1510 1510 1511 1512 1512 1513 1514 1515 1517 1520 1522 1525 1527 1530 1533 1536 1539 1541 1544 1548 1552
1502 1501 1501 1501 1502 1502 1502 1503 1503 1503 1503 1503 1503 1503 1502 1502 1501 1502 1502 1504 1505 1505 1506 1507 1507 1508 1508 1508 1509 1509 1511 1513 1516 1519 1521 1524 1527 1529 1532 1535 1538 1541 1545
1498 1499 1498 1498 1498 1499 1499 1499 1500 1499 1499 1499 1500 1500 1499 1498 1499 1499 1499 1501 1502 1503 1503 1504 1504 1504 1504 1504 1504 1505 1506 1508 1510 1512 1515 1517 1520 1523 1526 1529 1532 1535 1539
1493 1493 1494 1494 1495 1495 1495 1495 1496 1496 1495 1495 1496 1496 1497 1496 1497 1496 1497 1498 1499 1499 1500 1500 1500 1500 1500 1500 1500 1501 1501 1503 1505 1507 1509 1511 1513 1516 1519 1522 1526 1529 1533
1486 1487 1488 1489 1489 1490 1491 1491 1491 1492 1492 1492 1492 1492 1493 1493 1494 1493 1493 1495 1496 1496 1495 1495 1495 1496 1496 1496 1497 1497 1498 1499 1500 1501 1503 1505 1507 1510 1513 1516 1520 1523 1526
1480 1480 1481 1481 1482 1484 1486 1487 1487 1488 1488 1488 1488 1488 1489 1490 1490 1491 1491 1490 1490 1491 1491 1491 1492 1492 1492 1492 1493 1493 1494 1494 1495 1496 1497 1499 1501 1504 1507 1510 1514 1517 1520
1476 1474 1474 1474 1475 1476 1478 1480 1482 1482 1483 1483 1484 1484 1485 1486 1487 1487 1488 1487 1487 1487 1487 1488 1488 1488 1488 1488 1489 1489 1489 1490 1490 1491 1492 1494 1496 1499 1502 1505 1508 1511 1514
1472 1471 1469 1468 1468 1468 1469 1471 1474 1476 1477 1478 1479 1479 1481 1482 1483 1483 1484 1485 1485 1485 1485 1485 1484 1484 1484 1484 1484 1485 1485 1485 1486 1487 1488 1490 1492 1495 1498 1500 1503 1505 1508
1467 1466 1465 1464 1462 1462 1461 1462 1464 1467 1470 1471 1473 1474 1476 1478 1479 1479 1480 1481 1483 1483 1483 1482 1482 1481 1481 1480 1480 1480 1481 1481 1483 1484 1485 1487 1489 1491 1494 1496 1498 1500 1503
1462 1461 1460 1459 1458 1457 1456 1455 1455 1457 1460 1463 1466 1468 1470 1473 1474 1475 1476 1477 1479 1480 1480 1480 1480 1479 1478 1477 1476 1477 1477 1478 1479 1481 1482 1484 1486 1489 1491 1493 1495 1498 1500
1456 1455 1454 1453 1453 1452 1451 1450 1450 1448 1450 1454 1457 1460 1464 1467 1469 1471 1472 1473 1474 1476 1476 1477 1477 1477 1475 1474 1474 1474 1474 1475 1477 1478 1480 1482 1485 1487 1489 1492 1494 1496 1498
1447 1447 1447 1447 1446 1446 1446 1445 1444 1444 1444 1445 1449 1452 1456 1460 1463 1465 1467 1468 1470 1471 1472 1472 1473 1474 1472 1472 1472 1472 1473 1474 1476 1477 1479 1481 1484 1486 1489 1491 1493 1495 1497
1437 1438 1438 1439 1439 1440 1440 1439 1439 1438 1439 1440 1442 1445 1449 1453 1456 1459 1461 1463 1465 1466 1468 1468 1469 1470 1470 1470 1470 1471 1472 1474 1475 1477 1479 1481 1484 1486 1489 1491 1494 1496 1498
1426 1427 1429 1430 1431 1432 1433 1433 1433 1432 1432 1434 1436 1439 1442 1446 1449 1452 1455 1457 1459 1461 1462 1463 1464 1466 1467 1467 1468 1469 1471 1473 1475 1477 1480 1482 1484 1487 1489 1492 1494 1497 1499
1416 1417 1419 1421 1423 1424 1426 1427 1428 1428 1428 1428 1431 1433 1436 1439 1442 1445 1448 1450 1453 1455 1457 1458 1459 1461 1462 1463 1465 1466 1468 1471 1475 1478 1480 1483 1486 1488 1490 1493 1495 1498 1500
1406 1407 1409 1412 1414 1417 1419 1421 1422 1423 1424 1424 1426 1429 1431 1434 1435 1438 1441 1443 1446 1448 1451 1452 1454 1455 1457 1459 1461 1463 1466 1469 1473 1478 1481 1484 1487 1489 1492 1494 1497 1499 1502
1396 1396 1398 1402 1405 1409 1412 1414 1416 1418 1419 1421 1422 1424 1426 1428 1430 1432 1434 1436 1438 1441 1444 1447 1448 1449 1452 1453 1456 1460 1463 1466 1469 1474 1480 1483 1488 1490 1493 1495 1498 1501 1503
1386 1387 1388 1392 1396 1400 1404 1407 1409 1411 1414 1416 1418 1419 1421 1422 1424 1425 1426 1428 1431 1434 1437 1440 1442 1444 1446 1449 1452 1456 1459 1463 1469 1474 1479 1482 1488 1491 1494 1497 1500 1502 1504
1377 1378 1380 1383 1387 1392 1397 1400 1403 1405 1407 1409 1411 1413 1415 1416 1417 1419 1419 1421 1424 1427 1431 1434 1436 1438 1441 1444 1447 1450 1454 1459 1465 1473 1479 1482 1487 1491 1495 1498 1500 1503 1504
1368 1370 1372 1375 1379 1384 1389 1393 1396 1398 1400 1403 1405 1407 1409 1410 1412 1412 1413 1415 1417 1421 1425 1428 1430 1433 1436 1438 1441 1445 1450 1456 1461 1470 1477 1481 1486 1490 1495 1499 1501 1503 1505